Wind_Speed
3 3 3 2 2 3 3 3 4 4 3 4 4 4 4 3 3 3 4 5 6 6 6 7 7 7 7 7 7 7 8 10 11 13 15 17 20 22 25 27 30 31 34 37
5 5 5 4 3 3 3 3 4 4 4 5 5 5 4 4 4 4 5 6 7 7 8 9 9 9 8 8 8 9 11 12 13 15 16 18 20 22 24 26 28 30 32 35
7 7 7 6 5 4 4 4 4 4 5 5 5 5 5 5 5 6 7 7 7 7 8 9 9 10 10 10 10 10 12 14 15 16 18 20 21 23 25 28 30 31 32 34
7 7 7 6 6 6 6 5 5 5 6 6 5 5 5 6 6 7 7 7 7 8 9 10 10 11 11 11 12 12 13 15 16 16 17 19 21 23 25 28 30 32 34 34
8 8 8 7 7 7 7 7 7 7 7 6 6 6 6 7 8 9 9 9 10 10 11 12 12 13 14 14 13 14 15 16 17 18 18 20 21 22 24 26 28 30 32 33
9 9 9 8 9 9 8 9 9 9 9 8 8 8 8 8 9 11 11 12 13 13 13 14 14 15 16 16 15 16 16 17 18 20 21 22 23 25 26 27 28 29 31 32
11 11 10 9 10 10 10 10 10 11 11 11 11 10 10 11 12 13 14 15 16 16 16 16 17 18 18 18 18 19 20 20 21 22 23 24 25 26 28 29 30 30 31 31
13 12 11 11 12 12 12 12 12 13 13 14 14 14 14 14 15 16 17 18 18 19 19 19 19 19 19 20 21 22 23 24 25 26 27 28 29 29 30 30 31 31 31 32
14 14 13 14 14 14 15 15 15 16 17 17 17 17 18 18 19 20 20 21 21 21 21 21 21 22 22 23 24 25 25 26 27 29 30 31 32 31 31 31 31 31 31 32
16 16 17 16 17 17 18 18 19 20 20 20 20 21 21 22 22 22 23 23 24 24 24 24 24 24 24 25 26 27 28 28 30 31 33 34 33 33 33 33 33 33 34 34
18 19 19 19 20 21 21 22 22 23 23 24 24 24 25 25 26 26 26 26 26 26 26 27 27 26 27 27 28 28 30 31 32 33 34 34 34 34 35 35 36 36 36 37
21 21 22 22 23 24 25 25 25 26 27 27 27 28 28 29 29 29 29 29 29 29 29 29 29 30 30 30 30 31 32 33 34 34 35 36 37 37 37 37 37 37 37 37
24 25 25 25 26 27 28 28 28 28 29 29 30 30 30 30 30 31 31 32 32 32 32 32 32 32 32 32 33 33 34 35 35 36 37 37 38 38 37 36 36 37 37 37
27 27 27 28 28 29 30 30 30 30 31 31 31 32 32 32 32 32 33 33 33 33 33 33 34 34 34 34 35 36 36 37 37 37 37 37 37 37 37 37 37 38 38 37
29 29 30 30 31 31 32 32 32 32 32 32 32 32 33 33 33 33 33 34 34 34 34 34 35 35 35 35 36 37 38 38 38 37 37 37 38 38 39 39 39 39 39 38
30 31 31 32 32 32 32 32 33 32 33 33 33 34 34 34 34 34 34 34 34 34 35 35 36 36 35 36 37 37 37 37 37 37 38 39 40 40 40 40 39 39 38 38
31 31 33 33 33 33 32 32 32 32 33 33 34 34 35 35 35 35 35 35 35 35 35 36 36 36 37 37 38 38 37 37 38 38 39 40 40 40 40 40 40 40 39 39
32 32 32 33 33 34 33 33 33 33 33 33 34 34 34 34 35 35 35 35 36 36 36 37 37 38 38 38 39 39 38 38 39 39 40 40 40 40 40 40 40 40 40 39
32 33 33 34 34 34 34 34 34 34 34 33 33 33 34 35 35 36 36 36 36 37 37 38 38 38 38 39 39 39 39 39 40 40 40 40 40 40 40 40 39 38 38 38
34 34 34 35 35 35 35 35 35 34 34 34 34 34 34 35 36 37 37 37 37 37 38 38 38 38 39 39 40 40 40 40 40 40 40 40 40 40 40 39 38 38 37 37
36 36 36 37 36 36 36 36 36 36 35 34 34 35 36 36 36 37 37 37 38 38 38 38 38 38 39 39 40 40 40 40 40 40 40 40 40 40 40 39 38 38 37 36
36 37 37 37 37 37 36 36 36 36 36 35 35 36 36 37 37 37 37 38 38 39 39 39 39 39 40 40 40 40 40 40 40 40 40 41 41 40 39 38 37 36 35 34
36 36 36 36 37 36 36 36 36 36 36 36 36 37 37 37 37 37 37 38 39 39 39 39 40 40 40 39 39 39 40 40 40 40 40 40 40 39 39 38 36 35 33 32
37 36 36 36 36 36 35 35 35 35 36 36 37 37 37 37 38 38 38 38 39 39 40 40 40 40 40 39 39 39 39 39 39 39 39 39 39 38 37 36 35 34 32 32
37 36 36 36 36 35 35 35 35 35 36 37 37 37 37 37 37 38 38 39 39 39 40 40 39 39 39 38 37 37 37 38 38 39 39 38 38 37 36 35 34 32 31 30
37 36 36 36 36 35 35 35 35 35 36 36 36 37 37 37 37 37 38 38 39 39 39 39 38 38 37 36 36 37 37 37 37 37 37 36 36 35 34 33 32 31 30 29
37 36 36 36 35 35 34 35 35 35 35 35 35 35 35 36 36 37 37 37 37 37 37 37 36 35 35 36 36 36 37 36 36 36 35 34 34 33 32 31 30 29 28 27
Wind_Direction
233 240 244 248 275 304 321 341 343 344 328 314 313 318 324 320 311 313 314 316 316 320 324 326 326 327 319 313 311 308 302 293 285 278 275 270 266 264 265 267 269 270 269 267
249 248 245 247 268 284 304 318 328 330 328 313 314 314 320 321 314 305 304 309 314 321 321 325 330 332 330 321 311 306 307 306 297 285 282 279 275 273 272 273 274 274 273 270
258 255 255 256 258 267 285 298 310 323 322 313 308 303 303 307 312 310 305 308 314 318 317 322 328 330 329 328 323 314 308 306 302 295 289 285 282 281 280 278 278 278 278 275
266 262 259 257 259 266 271 282 294 307 309 310 308 304 308 315 318 320 317 315 314 316 316 320 325 329 328 323 319 319 317 316 313 306 302 296 290 287 285 283 281 279 279 275
268 263 261 262 265 267 269 273 280 288 295 300 303 304 307 313 316 319 319 314 313 313 313 315 318 321 323 321 318 319 322 321 319 316 310 304 299 297 295 293 291 286 284 280
268 267 267 266 267 267 267 271 274 278 281 284 286 290 300 306 310 314 314 315 315 313 312 313 314 316 318 319 317 316 316 318 317 317 315 312 307 305 303 302 300 297 295 291
269 269 268 267 266 268 271 273 274 276 277 280 281 283 292 298 303 307 309 313 314 313 311 310 311 312 312 312 311 311 311 312 314 315 314 313 312 309 306 305 303 302 300 297
266 266 267 266 267 268 270 272 274 276 277 280 281 280 286 291 296 301 303 305 307 308 308 306 307 308 309 309 308 308 308 309 311 312 312 312 313 311 309 308 306 304 302 300
265 263 263 265 267 268 269 270 273 275 277 279 280 280 284 289 292 294 296 298 301 303 304 304 303 303 304 306 306 307 307 308 308 310 311 311 311 310 309 307 306 305 304 304
265 263 263 264 265 268 270 271 272 275 276 278 279 279 282 286 288 290 292 295 297 299 300 301 301 301 302 303 305 305 305 306 308 309 310 310 309 309 308 306 305 304 303 303
269 268 268 266 266 267 269 272 274 275 276 278 280 280 281 284 286 288 289 291 293 295 296 298 300 300 301 301 303 303 304 305 305 306 307 307 307 307 307 305 304 302 302 302
273 272 272 270 269 269 271 273 275 276 276 277 279 280 281 283 285 286 287 288 289 291 292 294 295 297 298 299 300 301 302 304 305 306 306 306 307 306 305 304 304 303 301 300
275 273 272 273 273 273 273 274 276 277 277 278 280 282 283 284 284 285 286 286 287 287 289 290 292 294 296 297 298 299 301 303 304 304 305 305 306 306 306 305 305 305 304 301
275 274 273 274 275 276 276 276 277 278 278 279 281 283 284 285 286 287 287 286 286 287 288 289 291 293 295 296 297 297 299 301 302 302 303 304 305 305 305 305 305 305 304 303
276 276 275 275 277 279 278 278 277 278 278 278 280 282 283 285 286 288 288 287 286 286 287 289 291 292 294 296 297 297 298 299 300 301 302 303 304 304 304 303 303 303 303 302
278 276 276 277 278 279 279 278 277 277 278 279 279 280 281 283 285 287 288 287 286 286 287 288 290 292 293 295 297 298 299 299 299 300 301 302 303 303 304 303 303 303 303 303
280 279 279 279 279 279 279 279 279 280 281 280 280 280 282 283 285 287 287 287 287 286 287 288 289 291 292 294 296 297 298 298 299 300 301 302 302 303 303 303 302 303 303 303
281 282 282 282 282 281 280 280 279 280 282 282 282 282 283 284 285 286 287 287 288 288 288 288 288 290 292 293 294 295 296 297 298 300 301 303 303 303 303 302 302 303 302 302
283 283 283 283 282 281 281 280 279 280 282 283 284 284 284 285 285 286 287 288 289 289 289 288 288 290 291 293 294 294 295 296 298 300 301 302 304 304 304 303 303 303 303 303
283 283 283 283 283 281 281 280 279 279 280 282 283 284 284 285 286 286 287 288 288 288 289 289 289 289 291 292 293 293 295 296 298 300 301 302 303 304 304 304 302 302 303 303
284 284 284 284 283 282 280 279 279 278 279 280 281 283 284 285 286 287 287 288 288 289 289 290 290 290 291 291 292 293 294 296 297 299 300 302 302 303 304 304 303 302 302 302
286 285 285 285 284 283 280 278 278 278 279 279 281 282 284 285 287 288 289 289 289 289 289 289 290 289 289 291 292 293 293 295 296 298 300 301 302 303 302 303 303 302 301 300
287 287 287 286 285 283 281 280 279 279 279 279 280 282 283 285 287 288 288 289 290 289 289 289 290 290 289 290 291 292 293 294 296 298 299 300 301 302 302 302 301 300 300 299
289 288 287 287 285 283 282 281 280 280 280 280 280 281 282 284 285 286 287 289 289 289 289 289 290 290 289 289 290 291 293 294 296 298 299 300 300 301 302 301 300 299 299 299
289 288 288 287 285 284 282 281 281 281 281 281 281 281 282 283 284 286 287 289 290 290 290 290 290 290 289 290 290 291 293 295 297 298 299 299 299 300 301 301 300 300 300 300
289 288 288 287 286 285 283 282 281 282 282 282 282 282 283 284 285 286 288 289 290 291 291 291 290 290 289 290 291 292 293 295 296 297 298 299 299 299 300 301 300 299 299 299
288 288 288 287 287 286 285 283 282 283 283 283 283 283 284 284 285 287 288 290 291 291 291 291 291 290 289 289 290 292 294 295 295 296 296 298 298 298 298 299 299 299 298 298
Height
5660 5659 5659 5659 5658 5658 5657 5656 5655 5654 5652 5651 5649 5648 5647 5645 5643 5642 5641 5639 5637 5635 5633 5631 5628 5626 5624 5622 5621 5620 5619 5618 5617 5616 5616 5615 5616 5616 5616 5616 5616 5615 5615 5615
5659 5658 5658 5658 5657 5657 5656 5655 5654 5652 5651 5649 5648 5647 5645 5644 5643 5641 5640 5638 5636 5634 5632 5629 5627 5625 5622 5620 5619 5617 5616 5614 5613 5611 5610 5610 5609 5609 5608 5608 5606 5605 5604 5603
5657 5657 5656 5657 5656 5655 5654 5654 5653 5651 5651 5648 5647 5645 5644 5643 5641 5640 5639 5637 5635 5633 5630 5628 5625 5623 5620 5618 5616 5614 5613 5611 5609 5606 5605 5603 5602 5601 5600 5599 5597 5595 5594 5592
5655 5655 5655 5657 5654 5653 5652 5652 5651 5650 5648 5647 5645 5644 5642 5641 5640 5638 5637 5635 5633 5631 5628 5626 5623 5620 5618 5615 5613 5611 5609 5607 5604 5601 5599 5597 5596 5594 5592 5590 5588 5586 5583 5581
5652 5652 5652 5653 5652 5650 5650 5650 5649 5648 5647 5645 5644 5642 5641 5639 5637 5636 5634 5632 5630 5628 5625 5623 5620 5617 5615 5612 5609 5607 5605 5602 5600 5597 5594 5592 5590 5587 5585 5582 5579 5576 5573 5571
5650 5649 5649 5651 5649 5648 5649 5647 5646 5645 5644 5643 5641 5640 5640 5637 5635 5633 5631 5629 5627 5624 5621 5619 5616 5613 5610 5607 5605 5603 5601 5598 5595 5592 5589 5586 5584 5581 5578 5574 5571 5567 5564 5561
5646 5645 5646 5647 5645 5645 5646 5645 5643 5641 5640 5639 5638 5637 5636 5634 5632 5630 5628 5625 5623 5620 5617 5615 5612 5609 5606 5604 5601 5598 5596 5593 5590 5587 5584 5581 5577 5574 5571 5567 5563 5560 5556 5553
5642 5642 5645 5642 5641 5642 5642 5640 5639 5637 5636 5635 5634 5632 5631 5629 5628 5626 5623 5621 5618 5615 5613 5610 5607 5605 5602 5599 5597 5594 5591 5588 5585 5582 5578 5575 5571 5567 5563 5559 5555 5552 5548 5545
5639 5641 5639 5637 5637 5636 5636 5635 5634 5633 5631 5630 5628 5627 5626 5624 5622 5620 5618 5615 5613 5610 5608 5605 5602 5600 5597 5594 5591 5588 5586 5583 5579 5576 5572 5568 5564 5560 5556 5551 5547 5544 5540 5536
5634 5634 5633 5632 5631 5631 5630 5629 5628 5627 5625 5623 5622 5620 5619 5617 5615 5613 5611 5609 5606 5604 5602 5599 5596 5593 5590 5588 5585 5582 5579 5575 5572 5568 5564 5560 5556 5552 5547 5543 5539 5535 5531 5527
5628 5628 5627 5626 5625 5624 5623 5621 5620 5619 5618 5616 5614 5613 5611 5609 5607 5605 5603 5601 5599 5596 5594 5592 5589 5586 5583 5580 5577 5574 5571 5567 5564 5560 5556 5551 5547 5542 5538 5533 5529 5525 5521 5517
5622 5621 5620 5619 5617 5616 5615 5614 5612 5611 5610 5608 5606 5604 5602 5600 5598 5596 5594 5592 5590 5588 5586 5583 5581 5578 5575 5572 5569 5565 5562 5559 5555 5551 5546 5542 5537 5532 5527 5523 5518 5514 5510 5506
5614 5612 5611 5610 5609 5608 5606 5605 5603 5601 5600 5598 5596 5594 5592 5590 5588 5586 5584 5582 5580 5578 5576 5574 5571 5569 5566 5562 5559 5556 5552 5548 5544 5540 5536 5531 5526 5521 5517 5512 5507 5503 5498 5494
5605 5603 5602 5601 5600 5598 5597 5595 5593 5591 5590 5588 5586 5584 5582 5579 5577 5575 5573 5571 5569 5567 5565 5563 5561 5558 5555 5552 5549 5545 5541 5538 5534 5530 5525 5521 5516 5511 5506 5502 5497 5492 5488 5483
5595 5594 5593 5592 5590 5588 5586 5584 5583 5581 5579 5577 5575 5573 5571 5569 5567 5565 5562 5560 5558 5556 5555 5552 5550 5547 5544 5541 5538 5534 5530 5527 5523 5518 5514 5510 5506 5501 5496 5491 5487 5482 5477 5473
5585 5583 5582 5581 5580 5578 5576 5574 5572 5570 5568 5566 5564 5562 5560 5558 5556 5554 5551 5549 5547 5545 5543 5541 5539 5536 5533 5530 5527 5523 5519 5515 5511 5507 5503 5499 5494 5489 5485 5480 5475 5471 5466 5462
5575 5573 5572 5570 5569 5567 5565 5563 5561 5559 5557 5555 5553 5551 5549 5548 5545 5543 5540 5538 5536 5534 5532 5530 5528 5525 5522 5519 5515 5512 5508 5504 5500 5496 5491 5487 5482 5477 5473 5468 5464 5459 5455 5451
5564 5563 5561 5559 5557 5555 5553 5552 5550 5548 5546 5544 5542 5540 5539 5537 5535 5532 5530 5528 5525 5523 5521 5518 5516 5513 5510 5507 5503 5500 5496 5492 5488 5484 5479 5475 5470 5465 5461 5456 5452 5448 5443 5439
5554 5552 5550 5547 5545 5543 5542 5540 5539 5537 5535 5534 5532 5530 5528 5526 5524 5522 5520 5517 5515 5512 5509 5506 5504 5501 5498 5494 5491 5488 5484 5480 5476 5472 5467 5463 5458 5454 5449 5444 5440 5435 5431 5427
5544 5541 5538 5536 5533 5532 5530 5529 5527 5526 5524 5522 5521 5519 5517 5515 5513 5511 5509 5506 5503 5500 5498 5494 5492 5489 5486 5483 5479 5476 5472 5468 5464 5460 5456 5451 5447 5442 5437 5432 5428 5424 5420 5416
5532 5530 5527 5524 5522 5519 5517 5516 5515 5514 5512 5511 5510 5508 5506 5504 5502 5499 5497 5495 5492 5489 5486 5483 5480 5477 5474 5470 5467 5464 5460 5456 5452 5448 5444 5440 5435 5430 5426 5421 5417 5413 5409 5405
5521 5518 5515 5512 5509 5507 5505 5503 5502 5501 5500 5499 5498 5496 5494 5492 5490 5488 5485 5482 5480 5477 5473 5470 5467 5464 5461 5458 5455 5452 5448 5444 5440 5437 5432 5428 5424 5419 5415 5410 5406 5402 5398 5394
5508 5505 5503 5500 5497 5495 5493 5491 5490 5489 5488 5487 5485 5484 5482 5480 5478 5476 5473 5470 5467 5464 5461 5458 5455 5452 5449 5445 5442 5439 5436 5432 5429 5425 5421 5417 5412 5408 5404 5400 5395 5391 5388 5384
5497 5494 5491 5488 5486 5483 5481 5479 5478 5477 5475 5474 5472 5471 5469 5467 5465 5463 5460 5458 5455 5451 5448 5445 5442 5439 5436 5433 5430 5427 5424 5421 5417 5413 5409 5405 5401 5397 5393 5389 5385 5381 5378 5375
5485 5482 5479 5477 5474 5472 5469 5467 5466 5464 5463 5461 5460 5458 5456 5455 5453 5450 5448 5445 5442 5439 5436 5432 5429 5426 5424 5421 5418 5415 5412 5409 5406 5402 5398 5394 5390 5386 5383 5379 5375 5372 5369 5366
5473 5470 5468 5465 5463 5460 5458 5456 5454 5453 5451 5449 5447 5445 5444 5442 5440 5438 5436 5433 5430 5427 5423 5420 5417 5414 5412 5409 5407 5404 5401 5398 5394 5390 5387 5383 5379 5376 5373 5369 5366 5363 5360 5357
5461 5458 5456 5454 5451 5449 5447 5445 5443 5441 5439 5437 5436 5434 5432 5430 5428 5426 5423 5420 5417 5414 5411 5408 5405 5403 5400 5398 5395 5392 5390 5386 5383 5379 5376 5373 5369 5366 5363 5360 5357 5354 5351 5349